Weather History for Hammond, LA

Change the Weather History Date:

Monday, November 21, 2011

  Actual Average (KMSY) Record (KMSY)
Temperature  
Mean Temperature 72 °F -  
Max Temperature 78 °F 67 °F 82 °F (1996)
Min Temperature 66 °F 48 °F 31 °F (1969)
Cooling Degree Days 7    
Growing Degree Days 22 (Base 50)    
Moisture  
Dew Point 70 °F    
Average Humidity 93    
Maximum Humidity 100    
Minimum Humidity 74    
Precipitation  
Precipitation 0.00 in - - ()
Sea Level Pressure  
Sea Level Pressure 30.17 in    
Wind  
Wind Speed 5 mph (SE)    
Max Wind Speed 12 mph    
Max Gust Speed 21 mph    
Visibility 7 miles    
Events Fog    
Averages and records for this station are not official NWS values.
T = Trace of Precipitation, MM = Missing Value Source: NWS Daily Summary

Daily Weather History Graph

Daily Weather History Graph

Search for Another Location

Airport:

Trip Planner

Search our weather history database for the weather conditions in past years. The results will help you decide how hot, cold, wet, or windy it might be!

Date:

Astronomy

Nov. 21, 2011 Rise Set
Actual Time 6:32 AM CST 5:02 PM CST
Civil Twilight 6:06 AM CST 5:27 PM CST
Nautical Twilight 5:37 AM CST 5:57 PM CST
Astronomical Twilight 5:08 AM CST 6:26 PM CST
Moon 2:25 AM CST (11/21) 2:13 PM CST (11/21)
Length of Visible Light 11h 21m
Length of Day
10h 29m
Waning Crescent, 17% of the Moon is Illuminated
Nov 21
Waning Crescent
Nov 25
New
Dec 2
First Quarter
Dec 10
Full
Dec 17
Last Quarter

Hourly Weather History & Observations

Time (CST) Temp. Dew Point Humidity Pressure Visibility Wind Dir Wind Speed Gust Speed Precip Events Conditions
12:15 AM 68.0 °F 68.0 °F 100% 30.19 in 5.0 mi SSE 3.5 mph - N/A   Overcast
12:35 AM 68.0 °F 68.0 °F 100% 30.19 in 4.0 mi SE 4.6 mph - N/A   Overcast
12:55 AM 68.0 °F 68.0 °F 100% 30.20 in 1.0 mi SE 3.5 mph - N/A   Overcast
1:15 AM 68.0 °F 68.0 °F 100% 30.21 in 1.2 mi SE 3.5 mph - N/A   Overcast
1:35 AM 68.0 °F 68.0 °F 100% 30.21 in 0.5 mi SE 3.5 mph - N/A Fog Fog
1:55 AM 68.0 °F 68.0 °F 100% 30.20 in 0.8 mi East 3.5 mph - N/A   Overcast
2:15 AM 68.0 °F 68.0 °F 100% 30.20 in 0.5 mi SE 5.8 mph - N/A Fog Fog
2:35 AM 66.2 °F 66.2 °F 100% 30.20 in 0.5 mi ESE 5.8 mph - N/A Fog Fog
2:55 AM 66.2 °F 66.2 °F 100% 30.20 in 0.8 mi ESE 4.6 mph - N/A   Overcast
3:15 AM 66.2 °F 66.2 °F 100% 30.20 in 1.8 mi ESE 4.6 mph - N/A   Overcast
3:35 AM 66.2 °F 66.2 °F 100% 30.19 in 5.0 mi East 5.8 mph - N/A   Overcast
3:55 AM 68.0 °F 68.0 °F 100% 30.20 in 3.0 mi East 4.6 mph - N/A   Overcast
4:15 AM 68.0 °F 68.0 °F 100% 30.19 in 5.0 mi East 6.9 mph - N/A   Overcast
4:35 AM 68.0 °F 68.0 °F 100% 30.19 in 5.0 mi East 4.6 mph - N/A   Overcast
4:55 AM 68.0 °F 68.0 °F 100% 30.19 in 7.0 mi East 4.6 mph - N/A   Overcast
5:15 AM 68.0 °F 68.0 °F 100% 30.19 in 7.0 mi ESE 3.5 mph - N/A   Overcast
5:55 AM 68.0 °F 68.0 °F 100% 30.20 in 7.0 mi ESE 5.8 mph - N/A   Overcast
6:15 AM 68.0 °F 68.0 °F 100% 30.21 in 7.0 mi ESE 5.8 mph - N/A   Overcast
6:35 AM 69.8 °F 69.8 °F 100% 30.21 in 3.0 mi East 3.5 mph - N/A   Overcast
6:55 AM 69.8 °F 69.8 °F 100% 30.22 in 1.8 mi East 4.6 mph - N/A   Overcast
7:15 AM 69.8 °F 69.8 °F 100% 30.23 in 3.0 mi East 3.5 mph - N/A   Overcast
7:35 AM 69.8 °F 69.8 °F 100% 30.24 in 4.0 mi Calm Calm - N/A   Overcast
7:55 AM 69.8 °F 69.8 °F 100% 30.24 in 5.0 mi Calm Calm - N/A   Overcast
8:15 AM 71.6 °F 71.6 °F 100% 30.25 in 5.0 mi Calm Calm - N/A   Overcast
8:35 AM 71.6 °F 71.6 °F 100% 30.25 in 7.0 mi SSE 4.6 mph - N/A   Overcast
8:55 AM 71.6 °F 71.6 °F 100% 30.25 in 7.0 mi SE 4.6 mph - N/A   Overcast
9:15 AM 71.6 °F 71.6 °F 100% 30.25 in 7.0 mi South 4.6 mph - N/A   Overcast
9:35 AM 73.4 °F 71.6 °F 94% 30.25 in 7.0 mi SE 4.6 mph - N/A   Overcast
9:55 AM 73.4 °F 71.6 °F 94% 30.24 in 7.0 mi SE 4.6 mph - N/A   Overcast
10:15 AM 73.4 °F 71.6 °F 94% 30.24 in 10.0 mi South 4.6 mph - N/A   Overcast
10:35 AM 73.4 °F 71.6 °F 94% 30.23 in 10.0 mi SSE 5.8 mph - N/A   Overcast
10:55 AM 75.2 °F 71.6 °F 89% 30.23 in 10.0 mi SSE 6.9 mph - N/A   Overcast
11:15 AM 75.2 °F 71.6 °F 89% 30.22 in 10.0 mi South 6.9 mph - N/A   Overcast
11:35 AM 75.2 °F 71.6 °F 89% 30.22 in 10.0 mi SSE 8.1 mph - N/A   Overcast
11:55 AM 73.4 °F 71.6 °F 94% 30.21 in 7.0 mi South 5.8 mph - N/A   Overcast
12:15 PM 77.0 °F 69.8 °F 78% 30.19 in 10.0 mi ESE 6.9 mph - N/A   Overcast
12:35 PM 77.0 °F 69.8 °F 78% 30.17 in 10.0 mi SE 5.8 mph - N/A   Scattered Clouds
12:55 PM 77.0 °F 69.8 °F 78% 30.16 in 10.0 mi ESE 4.6 mph - N/A   Mostly Cloudy
1:15 PM 78.8 °F 69.8 °F 74% 30.15 in 10.0 mi South 3.5 mph - N/A   Mostly Cloudy
1:35 PM 77.0 °F 69.8 °F 78% 30.14 in 10.0 mi SSE 4.6 mph - N/A   Scattered Clouds
1:55 PM 78.8 °F 69.8 °F 74% 30.13 in 10.0 mi SE 3.5 mph - N/A   Mostly Cloudy
2:15 PM 78.8 °F 69.8 °F 74% 30.13 in 10.0 mi SSE 3.5 mph - N/A   Overcast
2:35 PM 78.8 °F 69.8 °F 74% 30.12 in 10.0 mi SE 3.5 mph - N/A   Overcast
2:55 PM 78.8 °F 69.8 °F 74% 30.11 in 10.0 mi SE 6.9 mph - N/A   Mostly Cloudy
3:15 PM 78.8 °F 69.8 °F 74% 30.11 in 10.0 mi ESE 9.2 mph - N/A   Mostly Cloudy
3:35 PM 77.0 °F 69.8 °F 78% 30.11 in 10.0 mi SE 6.9 mph - N/A   Overcast
3:55 PM 77.0 °F 69.8 °F 78% 30.11 in 10.0 mi SE 6.9 mph - N/A   Overcast
4:15 PM 75.2 °F 69.8 °F 83% 30.10 in 10.0 mi SE 5.8 mph - N/A   Scattered Clouds
4:55 PM 73.4 °F 69.8 °F 88% 30.10 in 10.0 mi ESE 6.9 mph - N/A   Scattered Clouds
5:15 PM 73.4 °F 69.8 °F 88% 30.10 in 10.0 mi SE 6.9 mph - N/A   Clear
5:35 PM 71.6 °F 69.8 °F 94% 30.10 in 10.0 mi SE 6.9 mph - N/A   Clear
5:55 PM 71.6 °F 69.8 °F 94% 30.10 in 10.0 mi SE 8.1 mph - N/A   Clear
6:15 PM 71.6 °F 69.8 °F 94% 30.10 in 10.0 mi SE 10.4 mph - N/A   Scattered Clouds
6:35 PM 71.6 °F 69.8 °F 94% 30.09 in 10.0 mi SE 10.4 mph - N/A   Clear
6:55 PM 71.6 °F 69.8 °F 94% 30.08 in 10.0 mi SE 11.5 mph 18.4 mph N/A   Scattered Clouds
7:15 PM 71.6 °F 69.8 °F 94% 30.09 in 10.0 mi SE 11.5 mph 20.7 mph N/A   Mostly Cloudy
7:35 PM 71.6 °F 69.8 °F 94% 30.08 in 10.0 mi SE 10.4 mph 17.3 mph N/A   Overcast
7:55 PM 69.8 °F 69.8 °F 100% 30.09 in 10.0 mi SE 11.5 mph - N/A   Overcast
8:15 PM 69.8 °F 69.8 °F 100% 30.09 in 7.0 mi SE 10.4 mph - N/A   Overcast
8:35 PM 69.8 °F 69.8 °F 100% 30.10 in 10.0 mi SE 5.8 mph - N/A   Overcast
8:55 PM 69.8 °F 69.8 °F 100% 30.10 in 7.0 mi ESE 5.8 mph - N/A   Overcast
9:15 PM 69.8 °F 69.8 °F 100% 30.10 in 2.0 mi ESE 8.1 mph - N/A   Overcast
9:35 PM 69.8 °F 69.8 °F 100% 30.10 in 1.0 mi SE 5.8 mph - N/A   Overcast
9:55 PM 69.8 °F 69.8 °F 100% 30.09 in 1.0 mi SE 5.8 mph - N/A   Overcast
10:15 PM 69.8 °F 69.8 °F 100% 30.08 in 1.0 mi SE 8.1 mph - N/A   Overcast
10:35 PM 69.8 °F 69.8 °F 100% 30.07 in 3.0 mi SE 10.4 mph - N/A   Overcast
10:55 PM 69.8 °F 69.8 °F 100% 30.05 in 7.0 mi SE 11.5 mph - N/A   Overcast
11:15 PM 71.6 °F 71.6 °F 100% 30.06 in 10.0 mi SE 6.9 mph - N/A   Overcast
11:35 PM 71.6 °F 71.6 °F 100% 30.07 in 10.0 mi SSE 9.2 mph - N/A   Overcast
11:55 PM 71.6 °F 71.6 °F 100% 30.06 in 10.0 mi SE 6.9 mph - N/A   Overcast